{"data":{"norad_id":58423,"epoch":"2026-09-20T09:14:56.744736Z","epoch_age_seconds":156946,"freshness":"FRESH","line1":"1 58423U 23180X   26263.38537899 -.00000636  00000+0 -13597-4 0  9992","line2":"2 58423  43.0030  32.8315 0001255 268.1169  91.9539 15.27580428157294","mean_motion":15.27580428,"eccentricity":0.0001255,"inclination_deg":43.003,"raan_deg":32.8315,"arg_perigee_deg":268.1169,"mean_anomaly_deg":91.9539,"bstar":-1.3597e-5,"rev_number":15729,"period_min":94.266722301839,"perigee_km":482.18673575977,"apogee_km":483.90889314819,"semimajor_km":6861.184814454,"source":"CELESTRAK","updated_at":"2026-09-21T09:00:33.874619Z"}}